{"data":{"norad_id":65366,"intl_designator":"2025-190R","name":"STARLINK-34943","alt_names":[],"object_type":"PAYLOAD","status":"ACTIVE","operator":null,"country":"US","launch_date":"2025-08-28","launch_site_code":"AFETR","launch_vehicle":null,"mission":null,"orbit_class":"UNKNOWN","rcs_meters":null,"size_class":null,"mass_kg":null,"dimensions":null,"purposes":["comms"],"wikipedia_slug":null,"has_3d_model":false,"image_url":null,"decayed_at":null,"tle_current":{"epoch":"2026-05-25T02:34:27.739200Z","epoch_age_seconds":79836,"freshness":"FRESH","line1":"1 65366U 25190R   26145.10726550  .00013713  00000+0  42729-3 0  9998","line2":"2 65366  53.1582 173.3285 0001223  95.1362 264.9780 15.33566592 40987","mean_motion":15.33566592,"eccentricity":0.0001223,"inclination_deg":53.1582,"raan_deg":173.3285,"arg_perigee_deg":95.1362,"mean_anomaly_deg":264.978,"bstar":0.00042729,"rev_number":4098,"period_min":93.898759109119,"perigee_km":464.34448829329,"apogee_km":466.01836398032,"semimajor_km":6843.3184261368,"source":"CELESTRAK","updated_at":"2026-05-25T13:38:20.768115Z"}}}